Location: Champignolles
(47.0543°N, 4.5663°E)
Time: 13:30:02
(UTC+00:00)

NOSS 3-3 (C) - Pass Details

Date: 30 November 2020
Orbit: 820 x 1392 km, 63.4° (Epoch: 22 January)

Event Time Altitude Azimuth Distance (km) Brightness Sun altitude
Rises 18:16:05 0° 320° (NW) 3,934 7.6 -23.4°
Reaches altitude 10° 18:18:39 10° 321° (NW) 3,051 7.0 -23.8°
Maximum altitude 18:26:06 78° 48° (NE) 1,292 4.4 -25.0°
Enters shadow 18:29:57 36° 130° (SE) 1,972 5.2 -25.7°
